Weather in Catumbela

Angola     12°29′37″S   13°29′23″E
temp.,
°C
wind,
m/s
gust,
m/s
humid.,
%
clouds,
%
prec.,
mm/h
press.,
hPa
HPBL,
m
26 february, fri
fri2601:00+25w017199 0.1 1014287
04:00+23s237984 0.1 1013189
07:00+24sse127492 0.1 1014153
10:00+25w116697 0.0 1014324
13:00+25nw216898 0.0 1010384
16:00+27wnw556794 0.0 1008500
19:00+24wsw348197 0.0 1011275
22:00+23s3384100 0.0 1013252
27 february, sat
sat2701:00+23s2282100 0.0 1012114
04:00+22ssw1181100 0.0 1010127
07:00+24ssw117391 0.0 1011161
10:00+26nw326496 0.0 1011567
13:00+27nw446895 0.0 1009448
16:00+26nw347195 0.0 1007552
19:00+24w228088 0.0 1010307
22:00+23s118559 0.0 1012147
28 february, sun
sun2801:00+22s228970 0.0 1011135
04:00+21sse118912 0.0 101099
07:00+22sse227512 0.0 1011132
10:00+26nw326250 0.0 1011504
13:00+26nw546737 0.0 1008437
16:00+26wnw44675 0.0 1006512
19:00+23wsw238110 0.0 1008221
22:00+22ssw23852 0.0 1011167
1 march, mon
mon101:00+21s118537 0.0 101088
04:00+20s118486 0.0 1009100
07:00+23e117492 0.0 1010138
10:00+27nnw336134 0.0 1010458
13:00+27nw446427 0.0 1007468
16:00+27wnw33641 0.0 1006478
19:00+24wsw33811 0.0 1009208
22:00+22s11860 0.0 1011123
2 march, tue
tue201:00+21ssw11860 0.0 1010130
04:00+21sse12830 0.0 100983
07:00+23se00660 0.0 1010107
10:00+28nw32510 0.0 1010339
13:00+28nw44590 0.0 1008385
16:00+28wnw32600 0.0 1006520
19:00+24wsw33830 0.0 1009169
22:00+23wsw12890 0.0 1010161